Time,TemperatureF,DewpointF,PressureIn,WindDirection,WindDirectionDegrees,WindSpeedMPH,WindSpeedGustMPH,Humidity,HourlyPrecipIn,Conditions,Clouds,dailyrainin,SolarRadiationWatts/m^2,SoftwareType,DateUTC
2013-08-10 00:06:00,70.1,68.0,29.76,SW,221,0.0,0.0,93,0.00,,,0.00,0,Wunderground v.1.15,2013-08-10 04:06:00,
2013-08-10 00:15:00,70.1,68.0,29.76,SW,221,0.0,0.0,93,0.00,,,0.00,0,Wunderground v.1.15,2013-08-10 04:15:00,
2013-08-10 00:20:00,70.1,68.0,29.76,SW,221,0.0,0.0,93,0.00,,,0.00,0,Wunderground v.1.15,2013-08-10 04:20:00,
2013-08-10 00:26:00,69.9,67.8,29.76,SW,221,0.0,0.0,93,0.00,,,0.00,0,Wunderground v.1.15,2013-08-10 04:26:00,
2013-08-10 00:35:00,69.8,67.7,29.76,SW,221,0.0,0.0,93,0.00,,,0.00,0,Wunderground v.1.15,2013-08-10 04:35:00,
2013-08-10 00:46:00,69.6,67.5,29.77,SW,221,0.0,0.0,93,0.00,,,0.00,0,Wunderground v.1.15,2013-08-10 04:46:00,
2013-08-10 00:56:00,69.6,67.5,29.77,SW,221,0.0,0.0,93,0.00,,,0.00,0,Wunderground v.1.15,2013-08-10 04:56:00,
2013-08-10 01:00:00,69.6,67.5,29.76,SW,221,0.0,0.0,93,0.00,,,0.00,0,Wunderground v.1.15,2013-08-10 05:00:00,
2013-08-10 01:06:00,69.4,67.3,29.76,SW,221,0.0,0.0,93,0.00,,,0.00,0,Wunderground v.1.15,2013-08-10 05:06:00,
2013-08-10 01:15:00,69.1,67.0,29.76,SW,221,0.0,0.0,93,0.00,,,0.00,0,Wunderground v.1.15,2013-08-10 05:15:00,
2013-08-10 01:21:00,68.9,66.8,29.76,SW,221,0.0,0.0,93,0.00,,,0.00,0,Wunderground v.1.15,2013-08-10 05:21:00,
2013-08-10 01:30:00,68.8,66.7,29.77,SW,221,0.0,0.0,93,0.00,,,0.00,0,Wunderground v.1.15,2013-08-10 05:30:00,
2013-08-10 01:41:00,68.8,66.7,29.77,SW,221,0.0,0.0,93,0.00,,,0.00,0,Wunderground v.1.15,2013-08-10 05:41:00,
2013-08-10 01:50:00,68.6,66.5,29.77,SW,221,0.0,0.0,93,0.00,,,0.00,0,Wunderground v.1.15,2013-08-10 05:50:00,
2013-08-10 01:56:00,68.6,66.5,29.77,SW,221,0.0,0.0,93,0.00,,,0.00,0,Wunderground v.1.15,2013-08-10 05:56:00,
2013-08-10 02:06:00,68.1,66.0,29.77,SW,221,0.0,0.0,93,0.00,,,0.00,0,Wunderground v.1.15,2013-08-10 06:06:00,
2013-08-10 02:15:00,67.8,65.7,29.78,SW,221,0.0,0.0,93,0.00,,,0.00,0,Wunderground v.1.15,2013-08-10 06:15:00,
2013-08-10 02:21:00,67.6,65.5,29.78,SW,221,0.0,0.0,93,0.00,,,0.00,0,Wunderground v.1.15,2013-08-10 06:21:00,
2013-08-10 02:30:00,67.3,65.2,29.79,SW,221,0.0,0.0,93,0.00,,,0.00,0,Wunderground v.1.15,2013-08-10 06:30:00,
2013-08-10 02:36:00,67.1,65.0,29.79,SW,221,0.0,0.0,93,0.00,,,0.00,0,Wunderground v.1.15,2013-08-10 06:36:00,
2013-08-10 02:45:00,66.8,64.7,29.79,SW,221,0.0,0.0,93,0.00,,,0.00,0,Wunderground v.1.15,2013-08-10 06:45:00,
2013-08-10 02:56:00,66.6,64.5,29.79,SW,221,0.0,0.0,93,0.00,,,0.00,0,Wunderground v.1.15,2013-08-10 06:56:00,
2013-08-10 03:06:00,66.1,64.0,29.79,SW,221,0.0,0.0,93,0.00,,,0.00,0,Wunderground v.1.15,2013-08-10 07:06:00,
2013-08-10 03:15:00,65.8,63.7,29.80,SW,221,0.0,0.0,93,0.00,,,0.00,0,Wunderground v.1.15,2013-08-10 07:15:00,
2013-08-10 03:26:00,65.6,63.5,29.80,SW,221,0.0,0.0,93,0.00,,,0.00,0,Wunderground v.1.15,2013-08-10 07:26:00,
2013-08-10 03:35:00,65.3,63.2,29.80,SW,221,0.0,0.0,93,0.00,,,0.00,0,Wunderground v.1.15,2013-08-10 07:35:00,
2013-08-10 03:46:00,64.8,62.7,29.81,SW,221,0.0,0.0,93,0.00,,,0.00,0,Wunderground v.1.15,2013-08-10 07:46:00,
2013-08-10 03:55:00,64.5,62.4,29.81,SW,221,0.0,0.0,93,0.00,,,0.00,0,Wunderground v.1.15,2013-08-10 07:55:00,
2013-08-10 04:01:00,64.3,62.2,29.81,SW,221,0.0,0.0,93,0.00,,,0.00,0,Wunderground v.1.15,2013-08-10 08:01:00,
2013-08-10 04:11:00,64.0,61.9,29.81,SW,221,0.0,0.0,93,0.00,,,0.00,0,Wunderground v.1.15,2013-08-10 08:11:00,
2013-08-10 04:20:00,63.7,61.6,29.81,SW,221,0.0,0.0,93,0.00,,,0.00,0,Wunderground v.1.15,2013-08-10 08:20:00,
2013-08-10 04:26:00,63.5,61.4,29.81,SW,221,0.0,0.0,93,0.00,,,0.00,0,Wunderground v.1.15,2013-08-10 08:26:00,
2013-08-10 04:35:00,63.2,61.1,29.82,SW,221,0.0,0.0,93,0.00,,,0.00,0,Wunderground v.1.15,2013-08-10 08:35:00,
2013-08-10 04:46:00,62.9,61.1,29.82,SW,221,0.0,0.0,94,0.00,,,0.00,0,Wunderground v.1.15,2013-08-10 08:46:00,
2013-08-10 04:56:00,62.7,60.9,29.82,SW,221,0.0,0.0,94,0.00,,,0.00,0,Wunderground v.1.15,2013-08-10 08:56:00,
2013-08-10 05:06:00,62.4,60.7,29.82,SW,221,0.0,0.0,94,0.00,,,0.00,0,Wunderground v.1.15,2013-08-10 09:06:00,
2013-08-10 05:16:00,62.1,60.4,29.82,SW,221,0.0,0.0,94,0.00,,,0.00,0,Wunderground v.1.15,2013-08-10 09:16:00,
2013-08-10 05:25:00,61.8,59.8,29.82,SW,221,0.0,0.0,93,0.00,,,0.00,0,Wunderground v.1.15,2013-08-10 09:25:00,
2013-08-10 05:36:00,61.8,60.1,29.82,SW,221,0.0,0.0,94,0.00,,,0.00,0,Wunderground v.1.15,2013-08-10 09:36:00,
2013-08-10 05:45:00,61.5,59.8,29.83,SW,221,0.0,0.0,94,0.00,,,0.00,0,Wunderground v.1.15,2013-08-10 09:45:00,
2013-08-10 05:56:00,61.5,59.8,29.83,SW,221,0.0,0.0,94,0.00,,,0.00,5,Wunderground v.1.15,2013-08-10 09:56:00,
2013-08-10 06:06:00,61.2,59.5,29.83,SW,221,0.0,0.0,94,0.00,,,0.00,11,Wunderground v.1.15,2013-08-10 10:06:00,
2013-08-10 06:15:00,60.9,59.2,29.83,SW,221,0.0,0.0,94,0.00,,,0.00,19,Wunderground v.1.15,2013-08-10 10:15:00,
2013-08-10 06:21:00,60.9,59.2,29.83,SW,221,0.0,0.0,94,0.00,,,0.00,21,Wunderground v.1.15,2013-08-10 10:21:00,
2013-08-10 06:30:00,60.9,59.2,29.84,SW,221,0.0,0.0,94,0.00,,,0.00,26,Wunderground v.1.15,2013-08-10 10:30:00,
2013-08-10 06:41:00,61.0,59.3,29.84,SW,221,0.0,0.0,94,0.00,,,0.00,23,Wunderground v.1.15,2013-08-10 10:41:00,
2013-08-10 06:50:00,61.0,59.3,29.84,SW,221,0.0,0.0,94,0.00,,,0.00,26,Wunderground v.1.15,2013-08-10 10:50:00,
2013-08-10 06:56:00,61.0,59.3,29.84,SW,221,0.0,0.0,94,0.00,,,0.00,47,Wunderground v.1.15,2013-08-10 10:56:00,
2013-08-10 07:06:00,61.3,59.6,29.84,SW,221,0.0,0.0,94,0.00,,,0.00,35,Wunderground v.1.15,2013-08-10 11:06:00,
2013-08-10 07:15:00,61.6,60.2,29.84,SW,221,0.0,0.0,95,0.00,,,0.00,51,Wunderground v.1.15,2013-08-10 11:15:00,
2013-08-10 07:21:00,61.8,60.1,29.84,SW,221,0.0,0.0,94,0.00,,,0.00,69,Wunderground v.1.15,2013-08-10 11:21:00,
2013-08-10 07:30:00,62.4,60.9,29.84,SW,221,0.0,0.0,95,0.00,,,0.00,70,Wunderground v.1.15,2013-08-10 11:30:00,
2013-08-10 07:41:00,62.7,61.2,29.84,SW,221,0.0,0.0,95,0.00,,,0.00,79,Wunderground v.1.15,2013-08-10 11:41:00,
2013-08-10 07:50:00,63.2,61.7,29.85,SW,221,0.0,0.0,95,0.00,,,0.00,98,Wunderground v.1.15,2013-08-10 11:50:00,
2013-08-10 08:01:00,63.2,61.4,29.85,SW,221,0.0,0.0,94,0.00,,,0.00,53,Wunderground v.1.15,2013-08-10 12:01:00,
2013-08-10 08:06:00,63.2,61.4,29.85,SW,221,0.0,0.0,94,0.00,,,0.00,58,Wunderground v.1.15,2013-08-10 12:06:00,
2013-08-10 08:15:00,63.1,61.0,29.86,SW,223,0.0,0.0,93,0.00,,,0.00,53,Wunderground v.1.15,2013-08-10 12:15:00,
2013-08-10 08:26:00,63.2,60.5,29.86,ESE,120,0.0,1.0,91,0.00,,,0.00,70,Wunderground v.1.15,2013-08-10 12:26:00,
2013-08-10 08:35:00,63.4,58.5,29.86,NE,39,1.0,2.0,84,0.00,,,0.00,93,Wunderground v.1.15,2013-08-10 12:35:00,
2013-08-10 08:46:00,64.5,57.8,29.86,North,4,0.0,0.0,79,0.00,,,0.00,323,Wunderground v.1.15,2013-08-10 12:46:00,
2013-08-10 08:55:00,65.5,57.0,29.86,North,0,0.0,0.0,74,0.00,,,0.00,380,Wunderground v.1.15,2013-08-10 12:55:00,
2013-08-10 09:11:00,67.9,57.8,29.86,ESE,105,0.0,0.0,70,0.00,,,0.00,647,Wunderground v.1.15,2013-08-10 13:11:00,
2013-08-10 09:20:00,68.6,56.8,29.87,NNW,347,0.0,0.0,66,0.00,,,0.00,570,Wunderground v.1.15,2013-08-10 13:20:00,
2013-08-10 09:26:00,68.9,56.6,29.87,NW,316,0.0,0.0,65,0.00,,,0.00,594,Wunderground v.1.15,2013-08-10 13:26:00,
2013-08-10 09:35:00,68.9,56.2,29.87,South,182,0.0,1.0,64,0.00,,,0.00,390,Wunderground v.1.15,2013-08-10 13:35:00,
2013-08-10 09:46:00,68.1,56.7,29.87,North,358,0.0,0.0,67,0.00,,,0.00,422,Wunderground v.1.15,2013-08-10 13:46:00,
2013-08-10 09:55:00,68.1,55.5,29.87,NNE,30,0.0,0.0,64,0.00,,,0.00,640,Wunderground v.1.15,2013-08-10 13:55:00,
2013-08-10 10:11:00,68.8,54.3,29.88,East,99,0.0,0.0,60,0.00,,,0.00,770,Wunderground v.1.15,2013-08-10 14:11:00,
2013-08-10 10:20:00,69.9,55.4,29.88,South,190,0.0,0.0,60,0.00,,,0.00,795,Wunderground v.1.15,2013-08-10 14:20:00,
2013-08-10 10:26:00,70.3,55.8,29.88,East,96,0.0,0.0,60,0.00,,,0.00,652,Wunderground v.1.15,2013-08-10 14:26:00,
2013-08-10 10:35:00,70.9,55.9,29.88,South,191,0.0,0.0,59,0.00,,,0.00,789,Wunderground v.1.15,2013-08-10 14:35:00,
2013-08-10 10:46:00,71.5,54.5,29.89,East,88,0.0,0.0,55,0.00,,,0.00,721,Wunderground v.1.15,2013-08-10 14:46:00,
2013-08-10 10:55:00,71.6,55.1,29.89,East,93,0.0,0.0,56,0.00,,,0.00,789,Wunderground v.1.15,2013-08-10 14:55:00,
2013-08-10 11:01:00,71.8,54.3,29.89,SSW,213,0.0,0.0,54,0.00,,,0.00,916,Wunderground v.1.15,2013-08-10 15:01:00,
2013-08-10 11:06:00,72.3,58.5,29.89,ESE,117,0.0,0.0,62,0.00,,,0.00,726,Wunderground v.1.15,2013-08-10 15:06:00,
2013-08-10 11:15:00,72.7,55.6,29.89,SSW,202,0.0,0.0,55,0.00,,,0.00,666,Wunderground v.1.15,2013-08-10 15:15:00,
2013-08-10 11:26:00,72.1,53.0,29.89,North,10,0.0,0.0,51,0.00,,,0.00,893,Wunderground v.1.15,2013-08-10 15:26:00,
2013-08-10 11:35:00,72.7,55.1,29.89,West,277,0.0,0.0,54,0.00,,,0.00,870,Wunderground v.1.15,2013-08-10 15:35:00,
2013-08-10 11:41:00,72.7,53.5,29.89,ENE,67,0.0,0.0,51,0.00,,,0.00,510,Wunderground v.1.15,2013-08-10 15:41:00,
2013-08-10 11:50:00,72.0,51.8,29.89,NNE,15,0.0,0.0,49,0.00,,,0.00,828,Wunderground v.1.15,2013-08-10 15:50:00,
2013-08-10 12:01:00,72.8,51.4,29.90,SSE,167,1.0,1.0,47,0.00,,,0.00,958,Wunderground v.1.15,2013-08-10 16:01:00,
2013-08-10 12:10:00,73.2,52.9,29.90,North,0,0.0,0.0,49,0.00,,,0.00,824,Wunderground v.1.15,2013-08-10 16:10:00,
2013-08-10 12:21:00,73.0,52.7,29.90,WSW,248,0.0,0.0,49,0.00,,,0.00,949,Wunderground v.1.15,2013-08-10 16:21:00,
2013-08-10 12:30:00,73.5,55.3,29.89,North,356,0.0,0.0,53,0.00,,,0.00,947,Wunderground v.1.15,2013-08-10 16:30:00,
2013-08-10 12:41:00,74.0,54.2,29.89,North,11,0.0,0.0,50,0.00,,,0.00,942,Wunderground v.1.15,2013-08-10 16:41:00,
2013-08-10 12:50:00,73.7,53.3,29.89,North,351,0.0,0.0,49,0.00,,,0.00,951,Wunderground v.1.15,2013-08-10 16:50:00,
2013-08-10 13:01:00,74.4,51.1,29.90,NNE,33,0.0,0.0,44,0.00,,,0.00,939,Wunderground v.1.15,2013-08-10 17:01:00,
2013-08-10 13:10:00,74.4,52.3,29.90,SSW,200,0.0,0.0,46,0.00,,,0.00,905,Wunderground v.1.15,2013-08-10 17:10:00,
2013-08-10 13:21:00,74.6,54.7,29.90,North,357,0.0,0.0,50,0.00,,,0.00,942,Wunderground v.1.15,2013-08-10 17:21:00,
2013-08-10 13:30:00,74.9,53.9,29.90,West,270,0.0,2.0,48,0.00,,,0.00,960,Wunderground v.1.15,2013-08-10 17:30:00,
2013-08-10 13:41:00,74.7,54.8,29.90,WSW,237,1.0,1.0,50,0.00,,,0.00,925,Wunderground v.1.15,2013-08-10 17:41:00,
2013-08-10 13:50:00,74.7,49.4,29.90,SE,142,1.0,1.0,41,0.00,,,0.00,919,Wunderground v.1.15,2013-08-10 17:50:00,
2013-08-10 14:01:00,74.9,53.9,29.90,WNW,295,0.0,1.0,48,0.00,,,0.00,900,Wunderground v.1.15,2013-08-10 18:01:00,
2013-08-10 14:10:00,75.3,53.7,29.90,SW,217,0.0,0.0,47,0.00,,,0.00,888,Wunderground v.1.15,2013-08-10 18:10:00,
2013-08-10 14:21:00,75.6,53.9,29.90,SW,214,0.0,0.0,47,0.00,,,0.00,872,Wunderground v.1.15,2013-08-10 18:21:00,
2013-08-10 14:30:00,76.1,54.4,29.90,NW,309,0.0,0.0,47,0.00,,,0.00,868,Wunderground v.1.15,2013-08-10 18:30:00,
2013-08-10 14:41:00,75.8,46.9,29.90,WSW,252,0.0,0.0,36,0.00,,,0.00,838,Wunderground v.1.15,2013-08-10 18:41:00,
2013-08-10 14:50:00,75.3,51.3,29.90,SSW,210,1.0,1.0,43,0.00,,,0.00,830,Wunderground v.1.15,2013-08-10 18:50:00,
2013-08-10 15:01:00,75.8,48.4,29.90,North,0,0.0,0.0,38,0.00,,,0.00,800,Wunderground v.1.15,2013-08-10 19:01:00,
2013-08-10 15:11:00,75.8,51.7,29.90,NNE,15,0.0,0.0,43,0.00,,,0.00,777,Wunderground v.1.15,2013-08-10 19:11:00,
2013-08-10 15:20:00,76.8,53.2,29.90,SSW,200,0.0,0.0,44,0.00,,,0.00,752,Wunderground v.1.15,2013-08-10 19:20:00,
2013-08-10 15:26:00,77.7,50.1,29.90,WNW,290,0.0,0.0,38,0.00,,,0.00,735,Wunderground v.1.15,2013-08-10 19:26:00,
2013-08-10 15:35:00,76.3,50.9,29.90,ESE,102,0.0,0.0,41,0.00,,,0.00,714,Wunderground v.1.15,2013-08-10 19:35:00,
2013-08-10 15:41:00,76.0,50.6,29.90,ENE,63,0.0,0.0,41,0.00,,,0.00,703,Wunderground v.1.15,2013-08-10 19:41:00,
2013-08-10 15:50:00,75.8,51.1,29.90,SE,141,0.0,1.0,42,0.00,,,0.00,675,Wunderground v.1.15,2013-08-10 19:50:00,
2013-08-10 16:01:00,74.6,49.3,29.90,North,0,0.0,0.0,41,0.00,,,0.00,649,Wunderground v.1.15,2013-08-10 20:01:00,
2013-08-10 16:06:00,74.0,48.1,29.90,East,82,0.0,0.0,40,0.00,,,0.00,636,Wunderground v.1.15,2013-08-10 20:06:00,
2013-08-10 16:16:00,75.1,49.1,29.91,SSE,150,0.0,0.0,40,0.00,,,0.00,608,Wunderground v.1.15,2013-08-10 20:16:00,
2013-08-10 16:26:00,75.3,48.6,29.91,East,99,0.0,0.0,39,0.00,,,0.00,596,Wunderground v.1.15,2013-08-10 20:26:00,
2013-08-10 16:35:00,74.6,48.0,29.91,SSW,199,0.0,2.0,39,0.00,,,0.00,200,Wunderground v.1.15,2013-08-10 20:35:00,
2013-08-10 16:46:00,73.5,49.0,29.91,SSE,167,0.0,0.0,42,0.00,,,0.00,438,Wunderground v.1.15,2013-08-10 20:46:00,
2013-08-10 16:55:00,73.5,48.4,29.91,ESE,107,0.0,0.0,41,0.00,,,0.00,482,Wunderground v.1.15,2013-08-10 20:55:00,
2013-08-10 17:11:00,73.0,48.5,29.91,South,173,0.0,0.0,42,0.00,,,0.00,49,Wunderground v.1.15,2013-08-10 21:11:00,
2013-08-10 17:20:00,72.1,48.4,29.91,South,174,0.0,0.0,43,0.00,,,0.00,60,Wunderground v.1.15,2013-08-10 21:20:00,
2013-08-10 17:31:00,71.6,47.9,29.92,East,92,0.0,0.0,43,0.00,,,0.00,91,Wunderground v.1.15,2013-08-10 21:31:00,
2013-08-10 17:40:00,71.3,48.9,29.92,SSE,165,0.0,1.0,45,0.00,,,0.00,40,Wunderground v.1.15,2013-08-10 21:40:00,
2013-08-10 17:51:00,70.8,48.4,29.92,South,187,0.0,0.0,45,0.00,,,0.00,44,Wunderground v.1.15,2013-08-10 21:51:00,
2013-08-10 18:00:00,70.4,49.2,29.92,South,173,0.0,0.0,47,0.00,,,0.00,40,Wunderground v.1.15,2013-08-10 22:00:00,
2013-08-10 18:11:00,69.9,47.6,29.92,ESE,103,0.0,0.0,45,0.00,,,0.00,30,Wunderground v.1.15,2013-08-10 22:11:00,
2013-08-10 18:20:00,69.8,49.2,29.92,East,97,0.0,0.0,48,0.00,,,0.00,39,Wunderground v.1.15,2013-08-10 22:20:00,
2013-08-10 18:26:00,69.6,50.1,29.92,East,97,0.0,0.0,50,0.00,,,0.00,37,Wunderground v.1.15,2013-08-10 22:26:00,
2013-08-10 18:46:00,68.9,49.5,29.93,South,186,0.0,0.0,50,0.00,,,0.00,26,Wunderground v.1.15,2013-08-10 22:46:00,
2013-08-10 18:55:00,68.6,49.7,29.93,South,188,0.0,0.0,51,0.00,,,0.00,23,Wunderground v.1.15,2013-08-10 22:55:00,
2013-08-10 19:01:00,68.4,51.1,29.94,South,188,0.0,0.0,54,0.00,,,0.00,23,Wunderground v.1.15,2013-08-10 23:01:00,
2013-08-10 19:11:00,67.9,50.1,29.94,South,188,0.0,0.0,53,0.00,,,0.00,18,Wunderground v.1.15,2013-08-10 23:11:00,
2013-08-10 19:20:00,67.4,50.2,29.94,South,188,0.0,0.0,54,0.00,,,0.00,14,Wunderground v.1.15,2013-08-10 23:20:00,
2013-08-10 19:26:00,67.1,49.9,29.94,South,188,0.0,0.0,54,0.00,,,0.00,18,Wunderground v.1.15,2013-08-10 23:26:00,
2013-08-10 19:35:00,66.8,51.1,29.95,South,188,0.0,0.0,57,0.00,,,0.00,16,Wunderground v.1.15,2013-08-10 23:35:00,
2013-08-10 19:46:00,66.3,51.1,29.95,South,188,0.0,0.0,58,0.00,,,0.00,11,Wunderground v.1.15,2013-08-10 23:46:00,
2013-08-10 19:55:00,66.0,52.2,29.95,South,188,0.0,0.0,61,0.00,,,0.00,5,Wunderground v.1.15,2013-08-10 23:55:00,
2013-08-10 20:11:00,65.2,52.3,29.95,South,188,0.0,0.0,63,0.00,,,0.00,0,Wunderground v.1.15,2013-08-11 00:11:00,
2013-08-10 20:20:00,64.5,53.3,29.96,South,188,0.0,0.0,67,0.00,,,0.00,0,Wunderground v.1.15,2013-08-11 00:20:00,
2013-08-10 20:26:00,64.2,53.0,29.96,South,188,0.0,0.0,67,0.00,,,0.00,0,Wunderground v.1.15,2013-08-11 00:26:00,
2013-08-10 20:35:00,63.7,52.9,29.97,South,188,0.0,0.0,68,0.00,,,0.00,0,Wunderground v.1.15,2013-08-11 00:35:00,
2013-08-10 20:46:00,63.1,53.2,29.97,South,188,0.0,0.0,70,0.00,,,0.00,0,Wunderground v.1.15,2013-08-11 00:46:00,
2013-08-10 20:55:00,62.4,52.9,29.97,South,188,0.0,0.0,71,0.00,,,0.00,0,Wunderground v.1.15,2013-08-11 00:55:00,
2013-08-10 21:01:00,62.1,52.6,29.97,South,188,0.0,0.0,71,0.00,,,0.00,0,Wunderground v.1.15,2013-08-11 01:01:00,
2013-08-10 21:06:00,62.0,52.9,29.97,South,188,0.0,0.0,72,0.00,,,0.00,0,Wunderground v.1.15,2013-08-11 01:06:00,
2013-08-10 21:15:00,61.3,52.6,29.98,South,188,0.0,0.0,73,0.00,,,0.00,0,Wunderground v.1.15,2013-08-11 01:15:00,
2013-08-10 21:26:00,60.9,52.6,29.98,South,188,0.0,0.0,74,0.00,,,0.00,0,Wunderground v.1.15,2013-08-11 01:26:00,
2013-08-10 21:35:00,60.4,52.1,29.99,South,188,0.0,0.0,74,0.00,,,0.00,0,Wunderground v.1.15,2013-08-11 01:35:00,
2013-08-10 21:46:00,59.9,52.0,29.99,South,188,0.0,0.0,75,0.00,,,0.00,0,Wunderground v.1.15,2013-08-11 01:46:00,
2013-08-10 21:55:00,59.8,52.2,29.99,South,188,0.0,0.0,76,0.00,,,0.00,0,Wunderground v.1.15,2013-08-11 01:55:00,
2013-08-10 22:11:00,59.5,51.9,29.99,South,188,0.0,0.0,76,0.00,,,0.00,0,Wunderground v.1.15,2013-08-11 02:11:00,
2013-08-10 22:20:00,59.5,51.6,29.99,South,188,0.0,0.0,75,0.00,,,0.00,0,Wunderground v.1.15,2013-08-11 02:20:00,
2013-08-10 22:26:00,59.3,51.7,29.99,South,188,0.0,0.0,76,0.00,,,0.00,0,Wunderground v.1.15,2013-08-11 02:26:00,
2013-08-10 22:35:00,58.7,52.2,30.00,South,188,0.0,0.0,79,0.00,,,0.00,0,Wunderground v.1.15,2013-08-11 02:35:00,
2013-08-10 22:46:00,58.3,52.2,30.00,South,188,0.0,0.0,80,0.00,,,0.00,0,Wunderground v.1.15,2013-08-11 02:46:00,
2013-08-10 22:55:00,58.3,52.2,30.00,South,188,0.0,0.0,80,0.00,,,0.00,0,Wunderground v.1.15,2013-08-11 02:55:00,
2013-08-10 23:11:00,58.6,52.4,29.99,South,188,0.0,0.0,80,0.00,,,0.00,0,Wunderground v.1.15,2013-08-11 03:11:00,
2013-08-10 23:20:00,58.6,52.1,29.99,South,188,0.0,0.0,79,0.00,,,0.00,0,Wunderground v.1.15,2013-08-11 03:20:00,
2013-08-10 23:26:00,58.4,52.3,29.99,South,188,0.0,0.0,80,0.00,,,0.00,0,Wunderground v.1.15,2013-08-11 03:26:00,
2013-08-10 23:36:00,58.0,51.9,29.99,South,188,0.0,0.0,80,0.00,,,0.00,0,Wunderground v.1.15,2013-08-11 03:36:00,
2013-08-10 23:46:00,58.0,51.9,29.99,South,188,0.0,0.0,80,0.00,,,0.00,0,Wunderground v.1.15,2013-08-11 03:46:00,
2013-08-10 23:55:00,57.8,51.7,29.99,South,188,0.0,0.0,80,0.00,,,0.00,0,Wunderground v.1.15,2013-08-11 03:55:00,